Location: Gro�bocka
(50.8204°N, 11.9702°E)
Time: 14:38:01
(UTC+00:00)

FALCON 9 DEB - Pass Details

Date: 29 October 2020
Orbit: 383 x 397 km, 53.0° (Epoch: 28 November)

Event Time Altitude Azimuth Distance (km) Brightness Sun altitude
Rises 16:21:02 0° 227° (SW) 2,312 8.1 -5.3°
Reaches altitude 10° 16:23:11 10° 219° (SW) 1,454 6.7 -5.6°
Maximum altitude 16:26:15 39° 149° (SSE) 615 3.8 -6.1°
Drops below altitude 10° 16:29:20 10° 78° (ENE) 1,455 5.1 -6.5°
Enters shadow 16:29:35 - 77° (ENE) 1,553 5.2 -6.6°
